Zurück zum Katalog

ARIANE 44L DEB

LostHEO
NORAD 29024·DEBRIS·🇫🇷 France

Gestartet Jan 15, 1991 von Guiana Space Centre

Loading…

Nächste Überflüge (nächste 24 Stunden)

TLE

VeraltetSource: Space-Track

Epoche: Mar 29, 2024, 11:08 UTC

1 29024U 91003Q   24089.46433534  .00012731  00000-0  34959-1 0  9990
2 29024   6.8833 208.3455 6581867 135.6360 301.2415  3.07087284204729

Verfolge ARIANE 44L DEB in Echtzeit mit AllMySat

Download on the App Store